Regional Weather Roundup
Issued by NWS

Home | Current Version | Previous Version | Text Only | Print | Product List | Glossary Off
Versions: 1 2 3 4 5 6 7 8 9 10 11 12 13 14 15 16 17 18 19 20 21 22 23 24 25 26 27 28 29 30 31 32 33 34 35 36 37 38 39 40 41 42 43 44 45 46 47 48 49 50

031
ASUS43 KDTX 220701
RWRMI
MICHIGAN HOURLY REGIONAL WEATHER ROUNDUP
NATIONAL WEATHER SERVICE DETROIT/PONTIAC MI
300 AM EDT FRI MAY 22 2015

NOTE: "FAIR" INDICATES FEW OR NO CLOUDS BELOW 12,000 FEET WITH NO
SIGNIFICANT WEATHER AND/OR OBSTRUCTION TO VISIBILITY.

MIZ047>049-052>055-059>063-066>070-074>076-081>083-220800-
SOUTHEAST LOWER MICHIGAN

CITY           SKY/WX    TMP DP  RH WIND       PRES   REMARKS
ADRIAN         CLOUDY    50  37  61 W5        30.02S
ALMA           MOCLDY    47  28  48 N3        30.04S
ANN ARBOR      LGT RAIN  56  38  50 NW12      30.00R
BAD AXE        CLEAR     45  29  53 NW5       30.00S
CARO           CLEAR     47  32  55 NW6       30.02R
DETROIT CITY   MOCLDY    56  35  45 W8        29.99R
DETROIT        CLOUDY    52  38  58 SW6       30.01R
FLINT          CLOUDY    54  33  45 N13       30.02R
GROSSE ILE     MOCLDY    55  37  50 W6        29.98F
HILLSDALE      MOCLDY    57  34  42 W8        30.01S
HOWELL         CLOUDY    54  38  53 NW9       30.00S

CITY           SKY/WX    TMP DP  RH WIND       PRES   REMARKS
JACKSON        CLOUDY    53  37  54 W7        30.02R
LAMBERTVILLE   CLOUDY    55  34  44 CALM      30.02S
LANSING        MOCLDY    51  26  37 N12       30.04R
LAPEER         CLOUDY    51  34  52 N7        30.00S
MASON          CLOUDY    49  43  79 NW6       30.02R
MONROE         MOCLDY    54  37  54 W6        29.99S
MT. CLEMENS    LGT RAIN  55  41  59 W3        29.96S
PONTIAC        CLOUDY    54  38  54 W9        29.99R
PORT HOPE        N/A     48  32  53 NW13G20   29.97S
PORT HURON     MOCLDY    45  36  70 CALM      30.00S
TRI CITIES     MOCLDY    49  29  46 N9        30.04R
MIDLAND        FAIR      40  33  74 CALM      30.03S
TROY           CLOUDY    58  37  45 W8        30.00S
SAGINAW HB     MOCLDY    48  28  46 NW9       30.03R
$$
MIZ043>046-050>051-056>058-064>065-071>073-077>080-220800-
SOUTHWEST LOWER MICHIGAN

CITY           SKY/WX    TMP DP  RH WIND       PRES   REMARKS
BATTLE CREEK   CLOUDY    53  40  61 N5        30.04R
BENTON HARBOR  LGT RAIN  52  49  89 VRB3      30.04F
BIG RAPIDS     CLEAR     44  22  41 CALM      30.04S
COLDWATER      MOCLDY    52  36  55 W7        30.03R
FREMONT        MOCLDY    48  21  35 CALM      30.05R
HOLLAND        MOCLDY    52  38  58 N5        30.06R
GRAND RAPIDS   MOCLDY    51  34  52 NE9       30.05R
IONIA          FAIR      50  22  33 N8        30.04R
KALAMAZOO      LGT RAIN  55  43  63 W16G24    30.04R
LUDINGTON      CLEAR     37  31  79 CALM      30.07S
MARSHALL       CLOUDY    53  38  56 CALM      30.03R
MOUNT PLEASANT PTCLDY    46  22  38 NW3       30.03S
MUSKEGON       CLOUDY    51  30  44 NE6       30.06R
SOUTH HAVEN    CLOUDY    47  44  86 CALM      30.05S
$$
MIZ016>042-220800-
NORTHERN LOWER MICHIGAN

CITY           SKY/WX    TMP DP  RH WIND       PRES   REMARKS
ALPENA         CLEAR     41  26  55 NW7       30.02R
BEAVER ISLAND  CLEAR     39  28  65 CALM      30.07R
BELLAIRE       CLEAR     31  29  94 CALM      30.07R
CADILLAC       CLEAR     33  26  76 CALM      30.05R
CHARLEVOIX     CLEAR     40  31  70 NW5       30.08R
FRANKFORT      CLEAR     36  28  74 CALM      30.08R
GAYLORD        CLEAR     38  26  62 NW3       30.03R
HARBOR SPRINGS CLEAR     39  29  69 N7        30.05R WCI  34
HOUGHTON LAKE  CLEAR     41  23  48 NW6       30.04R
MANISTEE       CLEAR     34  28  80 CALM      30.07S
OSCODA         CLEAR     41  27  55 NW7       29.99R
PELLSTON       CLEAR     36  27  69 W3        30.05R
ROGERS CITY    CLEAR     42  31  64 NW7       30.04R
TRAVERSE CITY  CLEAR     35  29  78 CALM      30.06R
$$
MIZ007>008-015-220800-
EASTERN UPPER MICHIGAN

CITY           SKY/WX    TMP DP  RH WIND       PRES   REMARKS
KINROSS        CLEAR     36  30  80 NW6       30.05R WCI  31
NEWBERRY       CLEAR     36  28  72 NW6       30.06R WCI  32
S. S. MARIE    CLEAR     39  21  48 VRB5      30.04R
$$
MIZ004>006-011>014-085-220800-
CENTRAL UPPER MICHIGAN

CITY           SKY/WX    TMP DP  RH WIND       PRES   REMARKS
MANISTIQUE     CLEAR     34  24  67 N6        30.07R WCI  29
ESCANABA       CLEAR     37  21  52 NW5       30.09R WCI  34
MENOMINEE      CLEAR     37  28  70 NW6       30.10R WCI  33
SAWYER-GWINN   CLEAR     38  18  44 N8        30.09R WCI  32
$$
MIZ001>003-009>011-084-220800-
WESTERN UPPER MICHIGAN

CITY           SKY/WX    TMP DP  RH WIND       PRES   REMARKS
IRON MOUNTAIN  CLEAR     33  26  75 CALM      30.09R
HOUGHTON       CLEAR     34  26  72 CALM      30.09S
COPPER HARBOR    N/A     40  29  64 CALM      30.11R
IRONWOOD       CLEAR     34  32  93 CALM      30.08R
$$

ABBREVIATIONS USED IN REMARKS
   TC - TEMPERATURE IN CELSIUS
  WCI - WIND CHILL INDEX
   HX - HEAT INDEX
  VSB - VISIBILITY




USA.gov is the U.S. government's official web portal to all federal, state and local government web resources and services.